Wind_Gust
6 4 6 9 14 15 11 12 13 10 14 10 8 8 8 8 8 6 7 11 13 8 10 11 7 10 14 16 17 14 9 9 8 12 11 11 13 13 11 14 14 12 13 8 11 10 8 9 8 6 5 5 7 8 7 6 5 7 6 5 6 5 5 6 6 7 7 5 4 5 5 4 3 3 4 8 6 9 8 8 9 8 9 9 10 11
11 8 12 14 16 15 12 10 11 9 8 10 10 8 7 6 8 9 14 14 14 13 7 6 7 10 18 15 14 12 11 16 17 14 13 15 14 15 13 13 14 13 8 9 8 7 6 8 6 5 5 6 10 7 7 8 7 7 6 6 5 6 5 6 6 6 7 3 4 4 3 5 3 5 6 6 8 6 8 9 9 9 9 10 10 10
9 10 16 14 12 9 7 9 9 11 10 7 11 10 8 10 8 10 5 11 15 9 10 7 11 14 14 16 13 18 20 17 19 20 20 20 17 14 14 12 12 11 11 10 10 9 9 9 8 7 7 6 8 8 8 8 7 5 6 6 5 4 4 5 5 7 7 4 2 2 3 4 6 3 3 4 3 5 9 9 8 8 8 8 9 8
7 13 17 12 8 8 8 9 12 13 12 13 12 11 12 10 9 8 9 10 11 18 8 10 14 13 7 7 16 17 19 14 15 16 15 16 19 19 19 18 17 14 16 16 13 12 9 9 10 7 8 9 6 7 6 5 9 8 8 6 4 4 4 6 5 7 4 6 5 6 5 5 6 5 5 7 6 8 9 10 8 8 7 6 8 7
12 10 5 9 10 13 9 8 12 12 6 5 12 8 7 5 10 12 13 12 9 9 7 10 12 14 6 11 12 11 10 10 12 12 10 10 11 9 7 6 12 16 17 17 13 12 10 10 10 10 8 7 8 8 9 9 9 9 8 7 6 6 5 4 5 6 6 6 6 6 6 7 7 7 8 7 8 6 5 6 9 8 6 7 8 7
7 7 2 12 11 14 13 12 7 15 7 8 8 12 13 12 11 5 6 11 11 11 11 13 12 11 8 9 18 13 11 15 11 14 17 16 11 9 10 11 9 11 12 17 18 16 14 13 8 6 7 9 10 10 10 9 9 6 7 5 4 4 4 4 4 4 7 5 7 5 6 6 7 5 4 4 5 6 6 4 3 6 8 7 8 8
7 7 9 12 12 11 10 9 4 7 9 10 7 11 9 10 9 9 9 10 5 7 10 8 12 12 12 8 14 15 12 15 6 13 17 15 12 11 12 11 12 14 11 8 10 12 12 12 11 10 10 11 10 10 8 8 8 8 7 6 6 6 5 4 4 4 6 6 5 5 6 7 7 6 4 4 4 6 5 5 6 6 7 8 8 7
3 5 11 10 11 11 11 11 8 11 11 5 6 11 11 8 12 13 13 13 8 5 6 8 10 8 14 11 8 15 16 11 9 14 13 14 11 12 11 12 12 14 13 16 15 16 15 15 16 17 12 10 14 12 9 10 8 9 7 6 6 6 6 4 3 4 2 6 5 4 3 5 6 5 6 5 5 5 7 8 6 8 7 7 7 7
3 3 7 8 8 9 7 5 7 6 8 7 7 12 8 10 11 11 12 13 5 8 9 9 5 10 8 11 7 14 12 10 16 18 18 15 14 12 12 13 13 14 14 16 17 17 17 16 16 13 11 10 10 9 11 11 11 8 7 8 5 6 6 5 4 4 3 5 5 5 6 3 3 5 6 5 5 7 6 7 5 7 5 6 6 6
6 5 7 11 10 5 5 5 7 11 8 6 11 11 11 11 10 9 9 9 5 11 8 8 5 7 13 12 10 5 6 13 20 21 18 15 15 14 14 11 11 10 11 13 15 16 16 15 14 10 8 8 10 8 8 8 8 8 7 8 7 7 6 6 4 4 4 5 6 7 4 5 2 3 5 6 6 5 5 7 5 5 7 7 7 7
7 7 12 9 7 6 5 5 5 6 5 9 11 8 11 14 12 10 12 8 11 7 10 8 4 10 7 10 16 18 19 23 17 11 10 10 10 11 12 14 14 13 13 14 13 12 13 10 10 8 11 11 6 6 8 9 9 8 8 8 9 9 7 4 5 5 5 4 4 5 5 5 5 4 6 7 6 5 6 8 5 5 5 6 6 7
9 8 7 9 5 6 5 6 8 6 4 9 10 5 10 8 18 13 12 12 13 7 11 7 5 6 9 10 12 18 12 14 21 18 18 15 16 15 12 12 13 13 13 12 12 11 9 6 7 7 9 9 8 7 9 9 8 9 9 8 9 5 5 5 5 4 5 5 4 4 6 6 6 8 7 8 8 7 10 7 6 2 5 5 6 5
11 8 8 11 7 10 7 11 12 15 16 15 10 17 11 8 16 8 17 13 3 6 9 3 4 6 6 14 12 16 17 13 16 21 23 20 16 14 12 11 13 12 11 13 13 11 11 13 13 12 12 9 8 11 10 10 9 9 8 9 9 8 6 7 5 6 5 5 6 7 6 6 7 7 7 7 7 7 8 9 7 5 4 3 5 7
10 11 12 16 9 9 9 11 11 13 12 12 10 8 12 8 9 4 9 6 10 14 12 3 4 7 9 12 7 12 18 18 18 15 16 18 17 16 14 10 11 12 13 14 13 13 14 14 13 13 13 13 12 10 12 11 10 9 9 9 10 10 8 6 6 6 6 6 6 6 6 7 8 7 6 7 9 7 7 8 8 6 6 4 2 3
11 15 13 11 10 10 9 10 9 10 5 4 5 10 10 15 8 4 5 5 4 10 16 8 7 9 8 10 17 15 16 12 11 10 11 14 14 12 9 8 8 10 10 11 13 15 15 15 14 14 13 13 13 11 11 11 11 10 10 10 10 9 8 7 8 6 7 7 5 5 5 6 6 7 7 7 7 10 9 7 8 5 4 5 3 2
2 10 13 8 9 6 8 4 6 8 9 5 8 12 13 3 13 6 11 8 6 7 12 15 11 4 9 6 11 9 11 8 8 8 8 9 8 7 8 10 11 11 12 12 12 13 13 13 13 13 13 14 13 12 11 12 12 12 12 11 12 12 10 10 8 7 8 7 6 6 6 6 6 6 6 6 5 6 8 8 8 7 5 4 2 4
11 7 9 16 7 7 9 7 7 8 11 10 10 7 7 11 17 13 7 4 5 11 6 8 14 11 15 14 14 14 10 9 11 11 11 9 8 8 11 11 11 12 12 12 14 14 13 11 13 15 13 13 13 13 15 15 14 14 13 12 11 9 8 9 9 10 8 8 6 6 5 7 6 8 9 10 8 8 7 8 7 7 6 4 3 4
7 11 9 14 13 10 10 6 8 8 10 12 15 10 6 6 11 12 4 9 11 6 9 8 7 10 14 10 13 15 13 12 11 11 12 10 10 14 14 13 15 16 17 14 12 10 13 14 15 14 13 14 15 14 14 16 13 14 14 14 13 11 12 10 10 9 9 9 8 7 6 6 8 9 8 8 9 8 9 5 5 3 3 3 2 3
8 7 9 4 7 13 14 13 15 11 9 15 9 5 15 9 13 13 12 7 7 5 10 11 8 6 6 9 13 13 10 13 12 10 10 11 13 15 13 13 11 10 7 10 13 14 14 16 17 17 16 15 14 15 16 15 14 12 10 12 14 16 15 15 14 10 9 10 9 9 9 9 7 7 7 5 6 7 8 7 6 5 5 2 2 4
11 5 12 8 7 9 9 15 11 14 12 7 6 15 4 16 5 8 5 8 14 3 7 8 10 6 7 8 6 11 9 10 11 8 13 18 20 17 14 13 13 13 13 14 14 15 17 18 18 19 19 18 17 16 16 16 14 15 15 13 12 11 10 9 10 10 11 10 10 8 7 5 7 8 9 9 10 9 8 8 7 6 3 4 3 3
4 6 6 14 11 9 17 14 7 4 5 13 18 10 12 11 4 12 8 7 6 10 7 4 9 9 13 10 6 10 13 13 15 18 16 15 14 13 11 13 13 14 14 15 16 18 18 18 17 18 17 18 14 12 13 15 18 18 14 14 14 15 13 13 13 12 12 11 10 9 9 9 9 9 8 9 9 10 8 7 6 7 6 4 2 2
8 8 4 12 15 9 6 7 5 6 7 8 10 7 7 5 8 8 6 9 8 10 7 7 10 13 18 9 7 7 8 6 8 13 12 11 11 11 12 12 15 16 16 16 16 16 16 15 16 16 15 12 12 13 15 17 16 14 15 16 15 13 14 14 13 13 12 10 11 10 10 9 8 10 10 10 8 9 8 7 7 6 4 4 2 2
8 8 10 5 7 8 7 7 6 7 9 8 11 6 7 7 13 13 7 8 6 5 8 6 4 13 15 6 5 9 9 9 8 10 11 12 13 14 15 17 17 17 19 19 17 15 15 16 17 19 19 19 20 20 19 17 18 19 17 16 15 17 16 16 16 13 12 12 11 11 10 9 8 9 10 10 8 8 8 8 7 5 6 5 2 3
9 14 10 10 12 11 9 8 6 8 6 10 9 4 7 7 5 13 9 10 7 5 6 5 5 15 12 5 6 9 11 10 11 10 14 14 12 11 12 13 13 10 14 11 13 13 16 15 14 13 15 18 19 18 19 19 17 16 16 17 16 18 17 14 13 13 12 11 11 10 9 10 9 9 9 10 9 9 8 8 7 6 6 4 4 5
10 8 9 6 13 19 17 17 15 11 15 10 6 8 5 3 7 4 8 4 5 8 9 10 9 12 13 7 9 10 8 11 12 11 10 13 12 11 13 12 12 14 13 10 13 16 15 12 14 18 20 21 21 18 17 18 18 16 16 16 17 17 16 15 13 14 14 14 13 10 11 9 10 11 10 10 9 9 8 8 8 6 6 6 6 6
12 3 7 4 8 7 9 9 12 15 14 13 4 10 8 8 7 10 5 5 4 6 5 6 10 17 17 12 12 7 9 13 13 11 6 9 11 14 14 13 13 12 13 13 13 10 15 20 21 19 18 19 18 18 17 16 15 15 14 16 16 17 14 15 14 15 15 14 15 12 11 10 10 11 12 10 10 10 10 10 8 8 5 6 7 6
9 5 8 10 11 13 12 11 10 2 9 10 14 9 11 4 7 10 10 7 7 8 9 12 11 9 14 14 13 14 9 7 12 12 10 11 9 9 8 6 8 9 8 8 10 14 13 10 16 20 20 19 15 14 16 16 16 15 15 15 15 16 18 17 16 15 16 15 14 13 12 12 12 12 11 11 11 10 10 10 9 8 8 6 7 7
9 8 2 10 6 11 11 7 7 5 5 7 8 12 11 4 4 3 5 13 9 9 10 10 8 6 12 11 12 13 12 9 9 12 13 10 8 6 5 6 8 7 6 6 6 7 10 14 17 16 15 14 16 14 16 18 18 18 17 19 18 18 18 17 16 15 15 15 13 14 14 13 12 12 13 12 11 11 10 10 9 9 7 8 8 8
9 5 4 3 3 5 7 8 5 7 5 6 10 9 9 7 3 5 5 7 8 7 15 10 7 7 11 10 12 13 11 7 7 8 8 10 10 9 10 10 9 9 9 10 9 9 10 13 14 14 13 13 12 15 15 15 14 14 15 16 18 18 19 17 17 17 16 15 15 15 16 14 11 11 11 12 12 11 11 11 10 8 8 8 7 8
11 3 5 2 2 6 8 8 7 8 9 9 7 9 9 6 8 6 7 6 11 7 9 10 7 12 14 12 11 11 11 8 9 7 6 10 10 10 9 8 8 8 8 7 7 8 9 12 13 12 13 12 15 13 13 14 15 17 18 18 16 16 15 16 17 18 16 17 16 14 14 14 12 13 12 12 13 13 12 11 10 10 9 9 8 8
10 9 8 2 5 5 7 9 6 5 4 11 9 10 10 6 6 4 3 4 4 6 5 5 3 10 12 10 9 10 9 7 8 10 8 8 11 10 10 9 7 7 6 7 8 9 10 9 9 8 10 12 13 14 17 17 17 16 16 15 15 16 16 17 17 17 18 18 15 15 13 13 13 13 14 14 13 12 12 12 11 10 9 9 9 10
5 6 4 5 4 9 7 7 7 7 8 6 6 7 11 10 9 6 9 4 3 6 4 5 6 8 12 11 15 8 8 5 9 6 6 4 5 8 9 8 7 6 6 6 7 7 9 9 10 11 12 13 13 13 13 13 14 14 17 16 16 15 13 15 16 18 17 17 16 15 15 14 13 14 14 13 14 14 13 12 11 11 10 11 10 9
8 9 5 3 4 9 10 3 5 7 11 14 8 5 9 8 4 7 7 4 5 4 4 3 11 11 11 10 13 14 10 8 6 6 5 4 4 8 8 8 8 7 8 7 8 7 7 8 9 13 13 10 12 14 15 16 14 18 19 17 15 11 14 16 15 15 15 14 16 16 16 14 16 16 15 15 14 14 13 13 12 12 11 13 12 10
6 9 6 6 7 7 6 7 4 10 11 10 11 6 4 11 9 8 10 8 8 4 8 9 12 12 11 14 12 13 13 11 9 4 4 12 8 7 7 6 7 9 9 10 9 7 7 8 10 11 13 14 13 16 15 14 20 22 19 16 9 12 14 16 14 15 16 16 17 18 17 16 16 16 16 15 14 14 14 14 15 14 13 12 10 13
6 6 5 7 7 6 4 7 11 8 15 13 12 11 7 9 7 13 6 4 7 8 8 11 12 12 10 9 8 8 8 8 6 8 14 12 7 7 6 6 6 5 5 6 8 7 7 7 9 11 14 11 12 9 7 9 11 7 5 9 12 11 12 13 15 16 15 16 15 15 16 16 17 17 15 14 15 15 16 16 13 13 13 15 15 15
9 10 9 5 6 7 7 5 9 11 10 12 17 13 5 6 5 7 10 13 13 12 8 8 10 11 9 12 13 9 13 11 10 9 11 9 5 7 11 13 14 11 12 10 8 8 8 9 9 10 12 11 9 9 11 15 12 10 11 9 13 11 11 13 14 15 13 15 16 17 17 18 17 17 15 15 15 16 17 16 17 17 14 14 12 9
14 10 10 9 4 9 7 7 14 11 14 9 8 9 10 10 8 6 5 6 7 10 9 8 12 15 16 13 14 16 12 9 12 14 14 15 16 12 8 13 12 14 11 11 7 9 9 7 7 10 9 11 10 10 14 11 10 11 8 10 11 12 11 13 15 16 18 18 18 18 18 18 18 17 16 16 16 18 19 19 17 15 15 15 14 14
14 16 10 12 9 10 7 5 11 10 11 14 12 12 9 6 7 8 11 6 11 14 9 10 10 12 14 15 18 17 9 15 16 15 18 20 16 15 20 13 13 11 10 10 10 9 9 8 7 7 8 9 13 11 10 9 11 12 11 12 11 12 13 15 18 18 19 20 19 19 18 18 19 18 17 18 21 21 21 20 16 16 16 18 17 15
11 12 13 13 9 6 6 6 9 8 17 13 12 12 13 8 8 7 12 7 8 9 13 8 11 12 9 12 15 16 19 14 8 12 19 17 21 19 16 18 11 10 8 8 11 14 14 13 11 10 7 7 11 13 8 9 11 12 13 12 11 10 14 18 18 18 20 20 18 17 18 18 18 18 19 24 23 22 20 19 19 15 14 14 15 16
11 8 9 10 6 5 8 5 8 12 11 5 7 10 11 4 7 11 7 10 8 11 11 8 10 9 10 9 7 13 14 15 14 18 17 17 15 17 9 14 17 19 22 19 14 7 12 13 14 15 13 11 12 12 10 9 11 10 11 11 11 13 15 17 18 18 17 15 14 16 17 18 19 20 22 23 22 22 19 17 18 21 20 14 14 14
9 8 10 7 6 3 5 7 7 14 11 8 8 11 11 4 7 8 9 10 7 5 7 5 7 5 6 9 8 11 13 17 17 19 18 15 16 20 19 12 8 11 15 17 20 16 15 16 13 13 11 10 11 10 8 9 11 12 11 11 11 16 19 19 15 14 15 15 15 15 17 17 19 21 20 19 20 19 18 20 21 16 15 18 15 14
6 3 5 5 4 6 7 7 14 11 14 6 12 8 9 10 11 4 11 8 6 7 5 6 8 11 6 9 9 12 14 15 15 11 12 15 16 17 17 15 16 17 14 9 12 11 14 19 18 17 16 10 9 10 8 8 11 13 12 11 15 20 19 13 12 11 10 13 15 16 16 18 18 19 18 16 17 22 23 17 17 18 21 18 17 17
6 6 5 4 6 4 7 4 8 8 6 4 11 10 13 12 15 12 8 7 5 6 6 8 9 10 8 9 10 13 12 13 12 15 15 14 14 15 14 13 14 16 19 19 21 21 21 21 20 20 16 15 10 8 8 9 11 11 11 14 20 19 13 12 13 14 13 14 17 20 22 24 22 20 17 18 21 21 20 16 19 19 17 18 17 17
4 6 5 7 10 5 4 7 8 12 11 7 9 10 10 8 9 9 7 10 8 8 7 9 9 11 10 12 12 12 12 12 12 15 14 15 15 16 17 17 18 19 19 18 16 14 12 15 13 14 13 12 10 7 7 10 12 11 12 18 21 12 11 12 13 15 17 16 17 20 23 23 21 19 16 17 18 18 18 18 18 18 17 16 18 17
4 4 11 6 9 5 9 9 10 8 10 7 4 8 8 10 5 8 7 8 8 12 9 6 10 12 8 9 10 9 10 11 15 15 13 17 17 18 19 15 12 13 14 13 15 12 7 8 11 11 13 16 12 8 10 10 12 11 13 16 11 13 15 14 13 15 17 19 19 21 19 17 16 16 16 16 18 19 19 17 17 18 15 20 18 18
3 4 3 5 7 6 6 7 5 7 7 10 7 6 9 10 10 8 9 11 10 12 8 8 10 11 13 7 7 9 8 9 12 15 13 11 10 12 9 10 12 9 9 9 9 9 8 8 8 8 9 15 14 11 9 11 11 13 17 14 11 14 16 16 16 16 19 18 18 18 18 19 16 17 19 18 19 22 22 23 22 21 18 18 19 20
6 7 10 5 4 10 11 11 12 10 7 5 7 11 6 6 7 6 9 7 9 10 13 9 10 11 11 9 7 9 13 12 11 14 13 11 11 10 10 11 12 10 10 13 14 13 14 10 13 13 12 13 13 12 12 9 12 16 16 16 12 14 15 17 19 19 17 18 18 15 17 21 21 19 19 17 18 18 18 19 20 20 20 21 21 20
7 4 10 2 2 4 8 7 9 9 6 8 6 10 13 13 15 10 8 9 8 10 7 10 9 9 8 9 10 7 10 10 8 11 10 10 10 10 11 12 13 15 14 8 10 9 8 9 10 11 12 14 14 13 12 12 13 16 16 15 12 12 15 18 19 20 19 20 18 18 20 22 19 21 19 21 22 21 18 18 19 21 24 25 25 24
8 8 10 4 11 11 7 5 8 10 10 14 16 12 11 10 10 14 14 11 10 12 14 13 5 9 8 11 8 7 11 13 8 7 9 11 11 12 13 14 13 11 12 14 14 11 11 9 12 11 11 13 12 11 12 12 13 13 14 16 11 12 14 19 21 20 18 19 18 19 20 23 21 22 22 22 21 24 27 28 25 26 25 25 26 28
8 12 5 9 9 8 6 10 6 16 14 17 11 11 13 15 9 11 11 12 14 13 13 12 18 15 8 8 8 9 9 9 11 9 10 9 9 11 13 14 13 13 14 11 11 9 11 10 8 10 12 13 12 12 12 12 14 14 12 11 10 9 11 14 14 13 17 18 20 21 21 19 19 20 21 22 23 22 20 15 21 25 30 26 21 23
4 7 8 7 9 10 11 11 7 5 7 12 12 13 14 13 9 12 11 11 12 12 11 12 14 15 16 13 6 7 8 8 11 9 11 11 11 9 9 9 12 14 15 14 14 16 15 13 12 12 15 16 13 14 13 14 13 14 14 12 10 9 9 9 12 14 14 15 18 22 23 22 21 21 21 22 22 22 23 20 17 17 22 18 20 23
Wind_Speed
1 1 2 4 6 6 4 7 5 3 5 5 5 5 1 1 4 3 3 3 4 3 3 4 2 2 4 5 8 7 4 5 5 5 5 6 7 6 5 6 6 6 6 3 3 2 2 3 2 1 1 0 3 4 2 3 3 5 4 4 4 3 3 4 4 4 4 3 2 3 2 3 1 2 3 4 4 5 5 5 5 5 5 5 5 5
4 4 6 6 7 6 2 3 6 6 3 3 5 3 1 2 1 0 0 1 3 3 1 0 2 5 5 4 4 3 4 9 10 8 7 8 8 6 7 7 7 5 2 1 3 3 3 3 3 1 1 1 0 1 1 2 3 4 4 4 2 2 4 4 4 4 4 1 1 1 2 3 2 2 3 4 5 4 5 6 6 5 6 6 6 6
3 1 8 6 5 3 4 5 2 5 4 4 4 2 1 3 3 4 1 0 1 2 3 2 1 5 2 5 4 9 11 7 7 8 6 6 7 7 7 6 5 3 4 1 3 3 3 3 3 2 1 1 1 1 1 0 3 3 4 3 1 2 3 3 3 5 4 2 1 1 1 2 3 1 1 2 2 3 5 5 5 5 5 5 5 5
3 5 7 5 4 5 5 4 6 6 6 6 4 2 4 2 0 3 2 1 1 1 0 0 1 7 4 1 4 5 6 1 2 5 5 6 8 10 9 6 5 4 4 5 6 5 4 3 3 3 2 1 0 0 0 1 3 2 3 2 1 2 3 4 4 4 3 4 4 4 3 3 4 3 2 2 4 5 6 6 5 5 4 4 5 4
4 3 1 3 3 3 5 3 6 5 2 1 3 3 1 1 2 2 1 0 1 0 3 3 6 7 3 0 2 2 2 2 0 3 4 5 7 5 3 3 5 7 7 6 7 6 5 5 5 4 3 0 1 2 3 3 3 3 2 2 0 1 2 3 3 4 4 4 4 3 4 4 4 3 4 4 4 4 3 4 6 5 3 4 4 4
4 2 0 2 4 5 6 4 1 5 2 2 4 5 4 3 4 1 1 3 5 2 2 1 3 3 3 5 5 6 0 3 3 4 5 5 4 5 7 7 5 4 5 7 9 8 6 5 4 3 3 3 2 3 4 2 3 3 4 2 0 1 1 3 3 3 5 3 4 3 3 4 4 3 1 2 2 4 4 2 1 3 5 5 5 5
2 1 3 2 7 4 5 4 3 3 4 2 2 6 2 3 5 6 3 4 1 0 2 0 4 3 5 2 4 4 3 5 2 5 6 5 5 6 7 7 7 8 6 4 5 4 5 6 5 5 5 4 4 5 3 1 2 2 3 3 3 3 3 1 3 3 3 4 2 3 4 4 4 4 2 1 0 3 3 3 4 4 4 5 5 5
0 2 3 3 5 5 4 5 4 6 5 1 1 6 5 5 6 5 5 4 1 1 1 5 3 1 5 5 3 5 4 4 5 7 6 6 6 8 7 8 8 8 8 8 8 8 8 8 8 10 8 5 6 4 1 1 0 2 4 4 4 3 3 2 2 3 2 3 2 2 2 2 3 3 1 1 2 2 3 4 3 3 4 4 4 5
1 2 1 4 5 3 2 2 2 3 2 2 3 6 5 6 6 6 6 3 1 0 4 2 1 0 2 3 3 1 3 4 8 8 8 8 8 7 8 8 8 9 10 9 9 9 10 10 10 7 6 4 3 3 3 4 2 1 1 2 2 3 3 3 1 2 1 2 4 3 3 2 1 2 3 2 3 4 3 5 3 3 3 3 4 4
2 1 1 3 2 1 3 3 3 7 1 2 5 7 6 7 7 4 5 4 2 3 3 3 1 1 5 5 4 1 0 4 5 6 5 5 9 9 9 8 7 7 7 8 9 9 9 9 8 5 2 3 5 4 3 2 2 2 1 1 2 3 3 3 2 2 2 3 4 4 3 3 2 2 3 3 4 3 3 4 2 2 3 3 4 4
2 5 6 4 1 1 0 1 2 2 1 5 6 4 5 8 4 4 6 3 4 1 3 2 1 2 2 4 1 2 1 2 5 5 2 1 4 7 8 9 9 8 8 8 8 8 8 5 4 3 6 5 3 2 1 2 3 3 3 3 3 4 3 3 3 3 3 2 3 3 4 3 3 3 4 4 3 2 2 4 2 2 3 3 4 4
3 3 2 1 1 1 1 1 1 1 1 5 2 2 3 2 7 3 5 5 3 2 3 3 2 1 1 3 3 5 7 6 5 5 8 2 4 6 6 6 7 8 8 7 7 7 5 4 4 4 5 5 5 3 3 3 3 3 3 3 4 3 3 3 3 2 3 3 3 3 4 4 4 5 4 5 5 4 4 3 3 0 1 2 3 3
5 3 3 6 2 6 3 3 3 6 6 8 5 8 4 2 5 1 6 1 0 2 1 2 1 2 1 3 4 10 8 7 4 6 5 6 2 5 4 5 5 5 5 7 7 6 5 7 7 7 7 5 5 7 6 5 4 4 4 4 5 4 3 4 3 4 3 3 4 5 4 4 4 4 5 5 5 5 5 4 4 2 1 0 2 4
3 3 6 9 4 3 1 4 5 5 6 7 4 3 4 2 3 0 2 1 3 4 3 1 2 0 3 5 4 7 9 6 7 4 3 3 2 2 4 3 4 4 5 6 6 6 7 7 8 8 8 8 7 7 7 6 5 5 5 5 5 6 4 4 4 4 4 4 4 4 4 4 5 5 4 4 5 5 4 5 5 4 4 2 2 2
2 3 6 5 2 4 2 2 1 1 2 0 2 1 4 6 1 0 1 1 1 3 6 4 1 1 4 1 5 6 6 5 2 1 2 3 1 2 3 2 2 3 4 4 5 6 7 8 8 8 8 7 8 7 7 5 5 5 5 5 5 4 4 4 5 4 5 5 4 3 3 4 4 5 4 4 4 6 5 4 4 3 2 2 1 1
1 2 5 3 5 3 2 1 3 4 3 0 2 3 5 0 6 2 2 2 2 1 3 4 0 1 3 2 5 4 3 3 5 5 4 4 4 4 4 3 2 3 3 3 4 5 6 6 6 6 6 7 7 7 6 6 5 6 6 5 6 7 6 6 5 5 5 5 4 4 4 4 4 3 3 3 3 3 4 5 4 4 3 2 1 2
2 3 1 8 4 3 5 1 1 1 0 2 3 1 1 3 9 5 1 1 2 3 1 1 4 4 6 2 3 9 7 6 7 7 7 5 3 3 2 1 2 3 3 4 5 5 6 5 5 6 6 6 6 6 7 7 7 8 7 7 7 6 4 6 6 6 5 4 4 4 4 5 4 5 6 6 5 5 4 4 3 3 2 1 1 2
2 2 3 5 3 1 2 1 1 3 3 4 4 2 1 2 4 4 1 3 4 2 2 2 1 5 5 1 7 9 8 7 7 6 6 5 4 3 0 1 3 4 5 5 4 4 4 5 5 5 5 5 7 7 6 7 5 6 7 8 8 7 8 6 6 6 6 5 4 4 4 4 5 6 5 5 6 5 5 3 2 2 2 1 0 1
1 1 3 1 3 8 5 1 4 3 3 1 4 3 1 1 1 4 3 1 1 1 2 4 2 3 2 3 5 7 6 8 7 6 6 7 5 5 3 1 3 3 3 5 5 5 5 6 6 6 7 6 5 5 6 6 6 6 6 7 9 10 10 10 8 7 5 5 5 5 6 6 5 4 5 4 4 5 5 5 4 3 2 0 1 1
3 1 2 3 1 3 3 5 1 7 5 3 2 3 0 4 2 2 0 2 5 0 2 2 4 0 2 3 2 5 5 6 7 5 5 5 4 5 5 4 3 3 4 4 5 5 6 6 7 8 8 8 8 7 6 5 4 7 8 7 7 5 4 4 5 6 7 6 5 4 3 4 4 5 6 6 6 6 6 5 5 4 2 2 1 2
0 1 1 4 5 2 2 3 0 0 2 5 7 4 4 2 1 4 1 2 0 3 2 0 1 3 6 5 3 4 4 4 3 4 5 5 5 5 6 6 4 4 4 5 5 6 7 7 7 7 7 7 5 5 5 6 8 8 6 6 7 8 7 7 7 6 7 6 5 5 6 6 6 6 5 6 5 6 5 4 3 4 3 1 0 1
2 2 1 3 5 3 2 1 1 2 1 2 4 2 2 1 0 0 1 1 3 2 1 2 3 6 9 2 4 4 5 4 4 4 3 6 6 5 6 6 5 5 5 4 5 5 6 6 6 5 4 4 5 6 7 7 6 7 7 7 7 7 7 8 7 7 7 6 6 7 7 6 4 6 6 6 6 5 5 5 4 4 3 3 1 1
2 3 4 2 1 2 1 4 2 1 3 4 5 1 2 2 5 5 2 2 1 1 4 2 1 4 6 3 2 3 5 6 5 3 5 3 4 5 5 6 6 6 5 3 3 2 2 2 3 3 4 5 7 6 6 5 6 6 6 7 7 8 9 9 9 8 7 7 7 7 6 6 5 5 6 7 5 5 6 5 4 3 4 3 2 2
5 4 2 2 5 5 4 3 1 2 2 3 4 2 2 2 0 2 2 3 2 0 1 1 0 5 4 2 4 5 6 7 6 3 6 7 7 5 6 7 5 5 5 3 1 0 1 2 3 4 4 6 6 6 6 5 5 5 6 7 7 9 9 8 7 7 7 7 7 7 6 6 6 6 6 6 6 6 5 5 5 4 4 3 3 4
0 1 3 3 2 4 6 8 5 5 6 3 1 3 0 1 4 2 4 1 0 3 4 4 2 2 2 3 5 5 5 7 8 4 1 5 7 5 5 5 4 2 1 1 0 1 2 4 5 5 6 7 7 6 6 6 7 7 8 7 9 8 8 7 6 7 8 8 8 7 7 6 6 6 6 6 6 6 6 5 5 4 4 4 4 4
4 1 1 1 4 2 1 2 4 3 1 4 1 3 3 2 0 1 0 1 1 1 2 2 3 8 9 6 3 3 5 7 8 7 4 4 5 6 6 4 4 3 2 2 2 1 3 4 4 4 6 5 5 6 6 6 7 9 9 10 8 8 7 8 7 8 8 7 8 7 7 7 6 7 7 7 6 7 7 6 5 5 3 4 5 4
3 1 3 4 3 5 4 3 3 1 1 2 4 2 3 1 2 3 4 2 2 2 2 5 5 3 8 8 8 8 1 4 7 7 7 5 4 3 2 2 1 2 3 4 2 2 1 1 4 7 8 7 6 7 8 9 10 9 9 8 8 8 8 8 8 7 7 7 7 7 8 8 8 7 7 7 7 6 6 6 6 6 5 4 5 5
3 3 1 5 3 5 5 1 1 2 1 1 1 3 1 2 0 0 0 2 3 5 4 2 1 1 6 6 7 7 7 5 4 5 8 7 4 3 2 0 2 3 0 1 3 4 3 2 3 5 8 9 10 6 7 9 9 8 8 9 7 7 7 6 7 7 7 7 7 8 8 8 8 7 7 7 7 7 7 6 6 6 4 5 5 5
3 2 2 0 1 1 2 2 0 1 2 1 2 2 5 2 1 2 2 3 5 1 5 4 3 1 5 5 6 6 6 4 4 5 5 5 5 3 3 4 5 6 6 6 6 5 5 6 6 5 4 6 7 8 7 8 9 6 5 5 6 6 8 7 8 8 8 7 8 9 10 8 7 6 6 7 7 7 7 7 6 5 5 5 5 4
3 1 0 0 0 1 1 2 2 1 1 1 2 3 3 2 3 4 2 2 6 3 4 1 2 7 7 6 6 6 4 4 5 4 2 3 2 1 3 4 4 5 5 5 5 5 5 6 6 6 8 8 5 6 6 6 7 7 6 5 5 7 6 7 8 9 8 9 9 8 8 8 7 7 7 7 7 7 7 7 6 6 6 6 6 5
3 1 2 0 1 0 3 5 1 3 1 3 3 3 3 2 0 2 0 0 0 3 1 1 1 5 5 3 4 6 6 4 1 2 2 1 1 1 4 4 5 5 5 5 5 6 6 6 5 5 6 7 7 5 5 6 5 5 4 4 6 7 6 7 7 8 8 9 8 8 8 7 7 7 8 8 8 7 8 8 7 6 6 6 6 7
2 1 2 1 1 2 1 4 3 2 1 0 2 3 4 5 5 3 3 1 1 3 3 2 3 3 5 7 10 5 5 3 1 1 1 3 3 2 3 3 3 3 4 4 5 5 6 6 7 8 8 9 8 5 4 4 4 4 5 4 5 4 4 5 6 8 8 8 7 7 9 8 8 8 9 8 8 8 8 7 7 7 7 6 7 6
2 4 1 1 1 2 3 1 4 4 2 4 4 3 2 2 0 0 0 2 2 1 1 0 5 2 6 5 7 10 7 6 2 3 3 3 3 3 4 4 4 4 4 5 5 5 4 5 5 5 6 6 7 7 5 3 3 5 4 5 5 6 6 7 7 7 7 7 8 8 8 8 9 9 9 9 9 8 8 8 8 7 7 8 7 6
1 5 2 1 0 2 2 4 2 3 3 1 3 1 0 0 2 5 2 3 5 1 2 2 6 7 6 8 7 8 8 5 2 2 1 2 4 5 4 4 4 5 6 7 6 5 5 5 6 6 4 3 5 5 6 3 4 3 3 4 4 6 7 7 7 7 7 7 8 8 8 8 9 9 9 9 8 8 9 9 9 8 7 6 6 7
3 2 2 1 1 0 1 2 2 1 4 3 3 3 2 3 5 9 4 1 4 4 4 6 6 7 6 4 4 4 4 4 3 5 10 9 5 4 3 2 3 3 3 4 6 5 5 5 6 7 10 8 5 5 3 4 3 1 2 3 5 5 6 7 7 7 7 8 7 6 7 9 9 10 9 9 9 9 10 10 8 8 8 8 9 8
4 5 3 1 2 2 2 2 1 2 4 4 4 1 1 4 3 2 4 5 5 4 1 4 4 4 5 8 8 4 3 6 3 4 7 6 4 4 6 8 10 8 8 7 6 6 5 6 6 7 8 6 6 5 3 4 2 2 3 2 4 5 6 6 7 8 7 8 8 9 9 10 10 9 8 9 9 10 11 10 10 11 8 8 7 6
6 4 3 1 0 2 2 4 3 4 3 4 3 4 3 1 1 1 1 2 2 2 2 2 6 7 8 8 9 10 6 2 5 8 8 8 10 7 4 8 7 8 7 7 4 6 6 4 5 6 6 7 6 6 5 4 2 3 2 3 3 4 5 5 7 8 9 9 9 10 10 10 10 10 9 10 10 11 11 11 11 9 8 9 8 8
2 2 3 5 2 4 3 0 1 2 1 3 3 7 2 3 2 2 3 0 3 2 1 2 5 6 8 8 10 10 5 6 7 7 10 11 9 9 12 8 9 7 7 7 7 6 6 6 5 4 3 6 8 5 3 2 2 2 3 3 3 3 5 6 8 8 8 9 10 10 10 10 11 10 10 10 12 12 13 11 9 9 8 9 9 9
6 6 5 5 2 2 2 1 1 2 1 4 6 6 4 2 2 4 3 1 2 0 1 1 6 5 5 6 7 8 10 8 5 6 9 10 12 11 11 12 8 6 5 5 7 10 10 9 7 7 4 5 7 9 6 3 1 2 3 3 3 4 5 8 9 8 10 11 10 9 9 9 10 10 10 12 12 11 7 5 4 3 2 4 6 7
5 4 3 4 2 0 4 1 1 2 2 1 4 6 6 2 3 2 2 3 2 2 2 1 4 4 4 4 4 5 7 8 8 10 7 10 9 8 5 7 10 11 13 13 10 5 7 9 10 10 9 7 8 8 7 4 1 2 3 3 3 5 8 9 10 9 8 7 7 7 8 8 10 11 11 13 12 7 10 10 10 12 12 9 7 7
3 2 5 2 2 0 2 0 1 2 3 4 4 7 6 1 2 2 1 2 3 3 3 2 1 2 2 3 2 4 5 9 10 11 9 7 7 11 8 4 3 3 6 6 8 11 9 10 9 9 8 5 6 7 5 4 4 6 4 1 3 7 10 9 5 4 6 6 6 7 9 9 10 12 12 11 9 8 9 9 12 10 9 10 8 8
2 1 0 2 2 1 2 2 2 1 3 3 7 4 4 1 1 2 2 2 2 3 3 2 4 4 2 4 4 6 6 6 7 5 6 8 8 10 10 9 8 8 6 2 2 5 6 11 12 12 11 8 5 6 5 3 4 5 5 4 7 9 6 3 3 3 4 6 7 8 8 10 10 10 9 8 8 9 10 10 10 10 11 9 8 10
1 1 1 0 1 1 2 2 1 2 1 1 8 5 6 3 2 3 4 4 2 2 2 3 3 6 2 5 5 6 7 8 6 7 8 8 7 9 9 8 7 7 9 8 5 5 3 2 6 10 11 9 7 5 5 3 3 4 4 5 8 8 5 4 3 3 5 6 7 8 9 9 10 9 7 8 10 10 10 9 10 9 9 9 8 8
0 0 1 2 4 1 1 1 1 1 2 3 4 3 2 1 4 3 1 6 3 1 3 4 4 2 3 4 6 7 6 6 8 5 5 6 7 6 7 7 6 7 9 7 4 4 3 4 7 9 8 6 5 4 3 3 4 4 5 7 7 6 5 4 4 3 4 6 7 7 8 8 8 8 8 9 9 9 9 9 9 8 8 8 9 9
2 1 4 1 1 1 1 1 1 2 3 2 2 1 1 3 2 1 1 0 3 5 0 3 5 7 2 3 5 4 5 5 5 6 4 6 7 7 8 8 6 7 7 7 8 6 3 5 7 7 8 7 4 3 3 1 2 5 5 6 5 7 7 6 3 3 5 6 6 7 7 5 6 7 8 8 9 9 9 9 9 9 7 9 9 9
0 2 0 2 1 1 0 1 2 2 2 4 2 0 2 4 4 3 4 5 2 3 2 2 5 5 7 1 3 4 3 4 6 7 5 5 5 6 5 7 6 4 5 5 5 5 4 5 3 3 6 10 6 6 5 6 2 3 6 5 5 6 6 6 5 4 5 6 6 6 5 6 7 7 7 7 8 9 9 9 9 9 8 9 9 9
3 1 1 1 0 4 1 2 4 4 4 2 4 5 1 1 2 2 3 2 3 5 5 2 3 6 6 6 3 4 6 5 5 6 5 5 5 6 7 8 8 7 7 9 9 8 9 7 8 9 8 9 8 8 8 6 5 6 8 9 8 7 6 5 6 6 6 6 6 5 5 6 6 6 6 7 5 4 4 5 6 7 8 9 10 10
1 0 1 0 0 1 1 2 3 4 3 4 3 6 6 7 7 4 1 2 2 2 0 4 3 5 4 5 5 4 6 4 4 6 7 6 6 6 6 7 7 9 9 5 5 5 5 6 6 7 8 9 9 8 8 7 8 7 7 7 8 8 6 5 6 7 8 8 6 5 6 7 6 6 5 5 7 7 6 7 7 8 9 10 11 11
1 0 0 0 0 3 1 2 4 3 1 2 2 1 2 3 4 4 4 4 5 7 7 4 2 0 2 3 4 5 8 9 6 5 6 6 7 7 7 7 6 6 6 9 9 6 5 4 7 7 7 8 8 7 7 8 8 8 7 7 7 7 7 8 7 7 8 8 6 7 6 6 6 6 6 7 8 9 10 11 11 12 11 11 10 11
1 1 0 2 2 1 1 1 2 2 3 7 4 4 6 6 4 5 5 7 8 7 7 8 6 1 2 4 5 5 6 5 7 6 6 5 4 5 7 8 8 8 8 7 6 6 8 7 6 7 8 8 8 8 8 8 8 8 6 6 5 6 7 9 9 8 8 7 6 7 6 6 6 7 7 7 7 7 7 9 14 13 12 12 16 17
2 3 3 1 4 1 3 3 3 1 2 6 3 4 5 4 4 5 6 4 5 4 3 4 6 9 9 7 4 4 4 5 7 6 7 7 7 5 4 5 7 8 9 8 8 10 10 9 8 8 10 10 9 9 8 9 9 8 8 7 6 6 6 6 7 8 8 7 7 7 7 6 6 5 5 7 8 7 7 7 9 14 17 14 15 19
Wind_Direction
353 81 239 225 228 225 219 194 182 170 141 107 91 100 142 171 288 280 270 252 147 95 234 221 244 254 257 215 206 199 173 207 217 215 205 204 215 223 226 232 245 243 243 276 251 253 292 296 286 314 355 20 91 71 61 88 82 81 90 80 53 353 11 64 60 45 57 64 59 45 71 98 337 36 64 49 31 55 49 44 42 37 34 34 36 40
64 37 287 227 230 207 206 131 102 79 47 123 118 117 135 149 251 235 13 90 204 134 295 196 199 248 241 257 219 163 172 219 214 217 216 205 209 218 222 225 230 250 319 346 294 284 298 300 292 332 8 354 98 60 72 95 90 92 76 75 56 31 61 67 86 94 69 83 119 154 167 134 107 63 65 61 34 43 47 42 39 34 31 36 31 26
24 221 262 243 213 131 118 120 103 124 107 41 123 136 99 272 245 284 12 79 169 81 269 325 260 270 226 231 198 183 196 219 216 211 214 194 205 215 224 222 223 226 250 268 237 267 271 288 290 304 355 333 308 156 137 125 95 81 85 86 58 66 85 94 103 79 87 66 48 110 170 139 92 13 141 113 56 52 64 48 38 34 32 41 40 30
15 290 260 282 167 129 44 79 97 71 59 105 86 88 218 240 106 290 314 13 18 116 227 212 227 281 308 268 235 219 203 247 198 204 204 192 204 211 213 204 200 218 228 233 221 224 242 257 266 274 293 301 353 318 89 160 123 100 82 74 57 67 76 68 71 103 100 91 83 65 101 66 101 113 105 85 47 48 53 44 34 38 25 43 52 39
190 259 20 37 102 123 104 98 115 108 149 18 122 135 120 204 228 150 250 130 14 63 99 48 9 325 343 332 301 304 235 251 197 178 211 212 210 210 201 203 201 203 205 214 223 222 214 227 233 227 235 220 190 218 225 220 154 157 138 122 161 61 79 77 72 94 123 98 61 60 61 52 50 37 31 35 30 31 58 61 33 8 9 34 46 41
314 277 109 18 68 61 97 94 122 123 61 346 227 180 199 166 149 88 212 88 24 352 328 98 16 316 310 291 256 281 327 215 210 198 220 219 206 184 199 208 208 211 197 204 212 215 207 213 228 232 229 213 231 227 230 216 168 142 102 76 114 132 101 85 80 88 81 84 113 78 78 68 67 63 45 102 98 52 48 35 325 24 33 32 39 31
192 345 83 247 117 123 96 115 203 118 151 91 267 185 166 132 137 134 148 77 37 115 298 335 134 268 338 347 323 309 293 253 259 224 228 205 203 198 201 198 197 201 201 203 214 220 212 217 217 225 218 205 208 238 231 225 173 165 126 156 193 165 140 117 90 93 93 69 75 133 154 153 158 154 245 233 221 117 63 55 50 31 32 34 41 27
313 342 35 22 53 48 45 73 204 134 100 64 250 118 112 117 154 180 143 128 163 227 310 47 101 142 322 293 271 291 283 280 274 248 227 220 203 204 203 196 195 197 198 196 197 202 214 211 207 212 207 191 205 223 197 247 58 190 180 166 182 167 138 122 99 82 94 112 122 92 105 128 147 165 179 67 140 126 109 69 48 53 46 43 46 38
110 338 33 40 72 70 114 223 170 142 130 208 198 148 160 165 193 144 133 110 83 72 308 329 325 335 267 264 302 334 2 325 284 257 231 210 207 209 204 202 199 196 196 194 197 199 202 210 213 218 210 193 198 220 203 215 194 243 251 203 150 152 137 124 108 95 66 120 134 128 122 81 90 150 139 94 80 96 91 85 33 57 33 50 48 50
281 161 264 118 101 43 247 261 183 147 79 259 112 62 66 69 58 91 105 96 348 61 287 273 198 175 287 279 341 320 271 295 275 279 266 200 202 199 200 203 200 195 196 202 205 203 205 209 213 210 180 182 210 216 213 161 139 198 159 195 162 160 158 140 136 106 101 122 121 112 118 123 102 93 67 80 91 96 100 101 52 26 29 7 41 20
292 310 165 63 46 274 177 320 155 265 331 127 95 86 31 45 46 45 63 96 59 21 260 256 270 155 296 282 272 25 88 260 307 314 307 224 205 207 199 192 190 190 193 197 203 208 210 200 195 172 195 205 204 220 213 163 163 178 179 194 177 194 170 153 158 145 157 150 132 132 154 147 137 140 122 104 95 114 105 124 93 38 356 5 3 2
12 352 39 314 203 176 94 111 71 113 41 131 57 92 80 12 16 34 352 37 91 274 265 278 234 130 138 302 315 238 266 250 243 279 307 338 216 216 208 200 191 186 189 193 196 207 196 157 172 179 204 201 201 193 215 191 170 177 193 184 186 192 190 178 158 149 158 158 145 136 154 156 158 156 157 157 165 176 166 158 140 329 17 356 349 17
26 13 282 318 303 50 17 64 317 9 29 55 63 35 89 277 32 308 8 9 150 129 169 323 185 44 224 216 268 305 299 298 229 227 269 329 313 235 223 205 194 187 180 185 197 198 188 190 182 192 204 196 194 202 200 199 187 182 179 186 179 203 204 198 169 183 178 165 170 159 166 160 156 165 166 168 166 177 165 160 143 138 156 330 33 3
286 282 3 342 17 42 93 87 326 15 343 31 67 105 73 50 38 285 276 224 314 299 271 9 323 204 253 303 246 292 298 282 289 279 289 293 298 221 218 208 192 190 190 192 194 196 198 196 197 197 195 197 201 202 200 196 189 185 184 184 185 204 196 196 183 191 184 201 184 167 157 160 150 161 170 172 164 173 164 163 166 178 186 150 98 7
62 352 339 3 356 337 65 130 164 161 74 157 159 127 183 144 161 226 241 35 244 224 286 285 57 253 31 253 302 288 285 300 300 38 62 65 96 131 148 147 164 194 208 198 196 200 202 207 202 199 197 201 202 199 199 197 194 183 191 180 194 204 212 196 203 190 202 202 184 157 153 149 148 149 163 169 164 159 158 176 163 198 162 114 131 264
135 211 259 249 256 347 17 349 119 99 46 288 155 97 69 89 156 106 205 157 232 332 3 349 200 194 198 286 294 310 310 5 2 16 44 39 41 71 89 126 182 213 210 205 210 214 218 215 212 209 204 203 202 203 197 195 190 188 194 186 196 198 198 200 200 206 200 205 176 150 153 160 146 126 128 135 140 162 164 167 169 181 174 179 211 277
21 57 296 319 357 43 5 270 325 100 117 266 55 50 231 162 98 104 63 61 56 54 63 262 324 313 295 341 300 348 20 349 360 357 3 1 30 67 84 134 195 214 216 218 217 215 220 220 226 222 213 207 205 205 203 199 192 189 186 186 197 209 205 201 200 201 205 197 169 173 156 144 138 143 158 169 174 166 162 160 171 149 180 153 178 273
141 233 295 37 10 39 59 39 62 29 140 60 74 238 139 114 128 126 186 342 56 105 268 41 339 302 23 157 331 355 10 331 336 331 325 315 352 30 111 202 198 203 212 221 229 232 230 227 223 227 231 220 214 211 209 208 193 193 190 188 192 197 200 207 200 201 199 188 188 170 170 170 169 169 170 167 162 157 143 152 143 120 109 148 229 281
101 19 302 258 227 277 347 56 2 2 13 140 172 196 83 296 345 327 83 14 345 335 298 328 302 252 162 271 343 336 334 308 311 319 331 325 338 319 303 217 229 221 200 210 218 221 224 221 225 223 228 227 225 223 218 208 192 191 198 199 194 198 200 195 196 198 192 189 184 181 179 174 176 166 155 148 141 146 152 168 176 148 167 10 359 18
30 154 299 290 106 308 6 56 47 301 328 27 56 29 7 95 127 31 130 178 112 203 65 283 37 160 232 215 228 269 280 277 284 313 301 286 283 285 287 279 223 214 207 211 214 219 221 223 221 220 220 225 223 221 218 209 199 205 204 197 204 209 200 194 194 189 190 198 184 179 168 183 168 162 158 158 154 160 169 177 168 155 143 200 325 327
328 102 125 277 318 28 19 3 122 230 12 345 30 352 0 33 234 105 61 57 236 165 165 152 360 287 270 217 192 250 251 261 225 260 278 273 268 247 250 261 252 221 218 212 211 215 219 222 225 225 222 226 228 222 212 204 206 211 200 201 199 196 194 196 198 189 200 182 190 170 177 179 165 160 154 150 164 162 165 171 164 156 174 120 19 341
71 19 87 314 18 11 212 254 273 294 138 134 134 102 177 341 351 4 275 30 67 62 224 107 254 263 272 187 226 261 275 279 262 219 241 274 279 258 252 247 244 244 223 213 213 213 220 222 225 231 232 231 220 222 218 214 210 207 202 200 197 197 199 193 195 197 191 187 182 184 184 189 179 152 152 153 164 159 163 173 167 157 135 146 222 94
136 143 97 54 156 130 275 291 285 310 120 123 109 42 136 126 105 94 102 281 37 77 119 158 117 278 240 262 252 251 279 282 280 266 265 255 252 260 243 238 239 234 242 219 227 230 243 271 262 247 241 236 232 233 228 224 219 214 205 199 199 197 204 195 197 193 183 182 185 189 182 166 167 160 162 155 161 162 169 179 158 158 152 187 150 50
84 56 39 306 320 298 312 281 46 91 101 29 9 71 52 15 356 166 171 185 126 24 65 3 23 250 286 324 297 281 274 280 276 238 280 305 305 321 335 353 340 322 336 360 44 88 220 215 211 208 221 229 231 231 224 219 219 218 215 207 201 205 201 197 194 184 181 184 190 182 168 170 170 164 166 162 167 170 176 173 169 157 161 172 116 95
54 316 116 44 5 338 343 345 5 333 47 85 324 306 352 100 68 146 102 42 62 223 168 117 231 291 272 331 314 310 332 332 315 306 186 279 296 303 320 331 337 297 291 355 167 185 205 221 218 220 218 217 223 221 215 213 209 211 214 206 207 210 201 197 187 180 186 184 181 178 175 171 165 169 172 168 163 169 170 178 168 168 164 141 104 115
84 199 77 124 135 148 224 286 275 310 292 283 226 331 330 65 101 9 293 21 80 280 128 142 248 255 277 299 300 301 334 324 306 287 278 222 251 295 315 325 321 330 290 234 237 179 231 264 272 248 238 232 223 212 205 214 218 215 213 211 204 198 190 196 185 189 183 181 177 178 177 174 171 177 179 168 166 169 175 175 174 171 166 145 130 97
132 104 99 148 149 179 206 212 256 98 28 53 304 332 312 55 34 92 106 88 242 206 189 232 190 280 316 303 315 308 301 264 291 312 312 310 315 298 280 313 342 9 338 297 259 221 238 273 261 271 287 270 239 216 204 219 220 214 210 212 201 197 187 187 185 185 181 180 181 174 181 179 185 181 176 172 171 169 168 175 177 167 175 154 141 133
65 59 329 119 150 186 181 194 182 149 218 250 31 307 348 333 277 43 227 281 165 74 317 272 214 172 262 286 289 292 302 298 268 276 303 315 286 261 279 263 144 108 29 358 12 15 341 247 243 262 264 270 270 248 222 227 233 220 215 212 192 188 187 181 178 181 182 178 180 178 182 191 188 180 176 172 168 168 174 174 173 181 163 142 143 145
131 127 234 101 227 260 236 228 29 90 206 211 213 247 307 305 292 168 226 208 141 174 210 259 166 239 263 258 276 282 276 265 274 283 277 268 306 343 22 33 25 31 34 36 20 7 358 344 330 307 275 259 267 258 231 222 234 233 221 208 191 187 193 173 172 178 180 181 185 188 190 185 188 178 166 166 167 170 176 178 180 174 158 155 149 143
89 45 181 65 16 341 352 350 18 188 294 329 266 257 245 252 253 204 226 186 179 215 210 209 197 248 256 263 277 291 276 251 275 271 310 26 16 5 98 75 78 66 48 32 2 355 345 337 323 313 311 309 281 254 237 221 221 219 216 203 182 189 188 167 180 177 182 188 192 190 189 182 174 169 166 165 174 179 174 176 178 173 163 160 150 141
102 273 134 90 66 322 318 330 34 40 80 343 298 310 324 297 348 195 125 117 50 298 26 70 25 308 271 231 281 292 303 282 269 16 9 301 341 77 78 61 44 30 12 2 352 345 330 323 309 314 329 322 311 266 240 232 221 209 210 194 187 192 185 177 179 183 185 195 194 185 177 171 174 166 172 178 180 176 173 177 175 176 166 156 152 153
48 310 56 68 72 311 340 4 306 23 64 90 325 323 339 2 13 350 28 307 70 311 315 1 355 293 287 347 318 308 339 345 152 59 28 13 359 359 70 48 20 353 335 315 306 311 325 330 337 340 334 328 320 299 257 247 233 205 207 181 187 180 168 184 186 188 192 194 185 181 178 179 171 175 181 177 180 177 180 172 173 178 169 162 158 163
142 122 131 70 103 258 273 1 343 5 36 7 328 286 309 293 71 20 359 31 41 243 52 47 244 227 302 326 340 327 357 342 1 46 12 5 8 13 356 332 323 313 293 287 296 305 303 313 317 315 317 324 325 313 281 236 212 221 200 178 175 154 174 188 190 192 196 194 187 186 182 175 179 184 181 184 178 176 173 175 178 180 169 178 177 153
97 117 152 180 136 243 297 332 7 50 51 260 234 193 3 25 92 81 17 327 322 15 239 222 259 299 323 351 1 319 333 319 307 324 286 357 17 360 347 328 304 290 291 285 273 270 292 316 326 321 300 276 300 294 287 240 229 232 183 171 156 169 182 183 194 194 200 194 196 189 182 179 184 189 190 181 175 173 177 180 187 186 179 168 161 172
140 117 144 176 113 259 333 20 37 13 232 241 300 273 249 169 134 120 125 70 344 352 6 13 354 355 330 303 303 293 295 298 331 34 30 12 5 355 313 283 274 265 282 327 329 322 318 315 319 328 333 340 337 321 310 296 265 230 159 163 172 183 180 191 190 197 197 199 198 185 183 186 190 196 189 181 177 178 184 187 185 182 180 172 176 178
154 126 161 55 120 64 58 60 86 236 242 295 300 283 179 95 119 79 17 10 13 3 316 37 349 351 7 7 352 325 326 307 307 82 51 34 35 346 334 328 326 339 353 340 326 309 310 318 312 305 305 310 327 331 297 275 279 208 227 194 182 188 192 190 194 202 196 200 197 193 192 189 195 195 188 182 182 184 188 189 188 186 180 174 181 186
132 108 103 102 281 177 197 151 220 302 352 14 12 8 29 294 266 197 160 346 333 322 28 13 7 14 13 10 6 357 337 10 31 358 4 14 359 3 357 313 309 314 317 322 328 310 307 290 294 303 309 318 323 337 341 297 262 227 210 197 208 190 198 193 205 207 204 205 200 198 193 193 193 195 189 187 185 192 193 190 193 190 173 172 180 176
105 133 230 134 240 119 140 356 347 22 281 283 243 282 285 238 222 172 104 284 304 325 281 20 35 3 11 11 15 360 2 53 7 335 330 341 356 347 345 347 330 331 326 318 325 326 332 327 316 303 325 325 322 332 346 302 212 214 219 227 210 197 209 205 217 214 210 213 205 200 196 195 193 194 194 186 198 199 200 195 188 182 174 176 175 186
34 78 107 130 149 79 49 124 212 132 246 217 270 281 289 264 163 132 71 332 266 256 288 87 33 17 32 21 354 20 35 18 307 285 313 340 335 336 346 329 324 316 304 302 315 318 325 323 320 302 336 344 343 334 350 333 176 173 230 231 221 215 222 226 227 214 212 217 209 202 199 195 194 195 194 199 206 205 169 153 157 88 144 187 179 186
41 1 29 45 69 117 134 110 237 194 103 332 264 293 309 106 124 62 12 293 260 264 237 136 67 26 350 5 354 35 62 333 302 295 296 308 296 296 282 294 321 333 336 339 336 318 301 310 339 335 343 340 326 323 334 337 274 233 232 217 203 220 235 237 232 224 223 222 211 205 199 196 196 198 198 206 209 166 171 173 153 177 188 184 181 175
356 344 44 143 163 175 107 285 350 321 290 269 264 278 303 203 111 71 186 241 256 239 250 187 201 234 221 247 201 282 207 200 225 237 255 264 294 289 274 235 225 264 292 311 317 326 332 338 335 308 302 307 311 312 325 342 340 315 316 237 210 240 241 246 250 236 230 221 213 208 204 200 200 202 206 205 195 166 164 171 182 178 175 182 179 171
353 108 327 84 66 198 198 152 224 228 242 266 291 272 265 73 38 181 236 214 199 252 258 221 275 265 233 249 238 228 248 243 262 290 281 273 262 272 285 302 326 318 280 221 354 323 344 353 338 325 330 326 321 312 328 353 335 309 321 318 284 269 281 320 277 233 227 221 219 215 209 206 207 207 206 192 167 171 180 185 180 180 184 180 174 181
205 67 265 300 197 63 43 76 17 127 300 352 312 14 18 80 225 235 295 300 221 274 274 289 235 280 254 288 270 261 283 292 274 272 280 286 284 279 289 306 306 291 297 320 323 308 5 18 307 307 307 306 315 321 327 353 327 320 324 308 283 292 303 294 278 233 214 218 225 223 218 214 206 202 195 189 189 185 188 176 176 180 182 176 175 178
208 102 292 275 185 162 76 117 158 207 240 306 54 113 285 296 274 277 164 317 315 268 336 337 289 248 260 249 285 298 285 287 301 287 298 294 297 304 306 304 299 293 294 290 281 287 315 282 266 261 265 286 300 310 329 358 331 326 329 301 300 310 303 296 272 252 239 230 224 226 228 222 214 205 196 191 187 193 187 179 177 169 174 167 167 167
259 171 178 92 267 114 208 203 249 232 222 266 101 137 223 279 300 227 187 239 322 333 176 341 306 321 322 284 282 268 289 287 267 289 293 288 306 308 305 301 285 285 293 301 301 306 282 262 282 298 307 303 305 316 321 317 306 314 314 292 319 319 314 309 287 245 252 252 245 232 230 222 222 212 204 194 184 190 195 184 170 168 168 168 178 181
218 197 121 107 227 275 332 189 326 335 337 346 332 293 309 339 341 21 21 12 308 279 274 270 305 303 315 344 309 305 256 293 314 307 302 293 293 292 288 292 299 291 287 292 301 310 296 297 296 313 322 323 332 343 337 329 299 297 292 305 313 303 304 302 301 274 252 252 249 248 234 220 214 207 209 201 195 199 196 186 182 179 169 176 183 186
271 174 118 93 319 86 176 323 8 337 318 329 327 321 293 13 329 338 10 1 303 325 336 314 293 303 308 324 293 270 294 311 311 301 302 308 319 317 320 320 321 326 330 336 333 344 343 349 348 346 344 332 329 343 338 337 322 289 303 313 310 304 295 296 289 285 273 256 249 238 222 229 229 214 198 194 194 200 195 181 178 174 176 183 184 189
338 201 47 164 90 104 208 231 254 274 257 286 321 352 349 342 342 347 329 296 283 290 334 322 353 10 355 358 345 320 311 336 347 326 328 332 329 328 329 334 336 338 338 325 315 338 343 358 352 342 340 331 327 332 330 329 326 321 317 315 317 313 307 295 285 282 284 276 264 241 217 223 220 207 194 176 162 168 180 183 173 184 190 190 192 189
203 39 237 173 131 282 314 303 301 345 33 317 331 292 297 317 315 326 343 9 18 17 3 3 50 346 46 356 354 11 7 353 353 336 334 334 341 348 342 333 334 331 326 347 343 350 349 346 349 342 339 329 327 332 331 330 326 329 333 329 327 325 324 308 297 289 286 288 288 270 241 222 209 192 180 180 192 201 195 181 184 195 200 205 196 195
60 88 198 54 44 2 161 298 37 46 285 310 320 332 343 339 347 323 352 21 10 8 359 352 349 16 63 20 20 33 39 357 352 4 358 340 331 333 341 346 344 347 346 345 336 346 350 358 356 343 338 327 331 331 331 327 326 325 330 331 331 336 332 319 314 307 293 290 283 276 266 249 234 208 191 190 199 203 219 219 199 195 198 203 198 208
137 195 133 137 149 220 253 235 209 220 253 254 256 316 341 339 3 20 14 347 344 348 337 9 355 349 359 357 7 38 13 4 340 347 349 349 330 327 319 333 341 341 338 341 351 349 349 342 346 350 347 338 335 331 326 323 319 323 327 336 334 340 329 322 316 307 302 300 290 273 262 255 244 227 189 208 212 205 210 216 228 218 212 208 195 197